Istanbul, Turkey

10:47 AM +03 on May 27, 2017 (GMT +0300)
Ataturk

Weather History for LTBA - February, 2013

Change the Weather History Date:

Wednesday, February 13, 2013

  Actual Average Record
Temperature  
Mean Temperature 48 °F -  
Max Temperature 56 °F 49 °F 63 °F (2014)
Min Temperature 39 °F 38 °F 23 °F (2004)
Degree Days  
Heating Degree Days 18    
Moisture  
Dew Point 37 °F    
Average Humidity 59    
Maximum Humidity 93    
Minimum Humidity 34    
Precipitation  
Precipitation 0.00 in - - ()
Sea Level Pressure  
Sea Level Pressure 30.08 in    
Wind  
Wind Speed 4 mph ()    
Max Wind Speed 7 mph    
Max Gust Speed -    
Visibility 5.0 miles    
Events      
Averages and records for this station are not official NWS values.
T = Trace of Precipitation, MM = Missing Value Source: Averaged Metar Reports

Daily Weather History Graph

Daily Weather History Graph

Search for Another Location

Airport or City:

Trip Planner

Search our weather history database for the weather conditions in past years. The results will help you decide how hot, cold, wet, or windy it might be!

Date:

Astronomy

Feb. 13, 2013 Rise Set
Actual Time 7:01 AM EET 5:36 PM EET
Civil Twilight 6:33 AM EET 6:05 PM EET
Nautical Twilight 6:01 AM EET 6:37 PM EET
Astronomical Twilight 5:29 AM EET 7:09 PM EET
Moon 8:18 AM EET (2/13) 9:21 PM EET (2/13)
Length of Visible Light 11h 31m
Length of Day
10h 35m
Waxing Crescent, 11% of the Moon is Illuminated
Feb 13
Waxing Crescent
Feb 17
First Quarter
Feb 25
Full
Mar 4
Last Quarter
Mar 11
New

Hourly Weather History & Observations

Time (EET) Temp. Windchill Dew Point Humidity Pressure Visibility Wind Dir Wind Speed Gust Speed Precip Events Conditions
12:20 AM 48.2 °F - 37.4 °F 66% 30.12 in 3.7 mi East 4.6 mph - N/A   Unknown
12:50 AM 46.4 °F 44.3 °F 39.2 °F 76% 30.12 in 3.7 mi East 4.6 mph - N/A   Unknown
1:20 AM 48.2 °F - 39.2 °F 71% 30.12 in 3.7 mi East 3.5 mph - N/A   Unknown
1:50 AM 48.2 °F - 39.2 °F 71% 30.12 in 4.3 mi East 4.6 mph - N/A   Unknown
2:00 AM 48 °F - 39 °F 62% 30.13 in 4 mi East 4.6 mph - -   Mist
2:20 AM 46.4 °F - 39.2 °F 76% 30.12 in 4.3 mi ENE 2.3 mph - N/A   Unknown
2:50 AM 46.4 °F 45.2 °F 39.2 °F 76% 30.09 in 3.7 mi ENE 3.5 mph - N/A   Unknown
3:20 AM 41.0 °F - 35.6 °F 81% 30.09 in 2.8 mi Variable 2.3 mph - N/A   Mist
3:50 AM 42.8 °F 41.1 °F 35.6 °F 76% 30.09 in 2.5 mi NNE 3.5 mph - N/A   Mist
4:20 AM 41.0 °F 39.0 °F 37.4 °F 87% 30.09 in 3.7 mi North 3.5 mph - N/A   Unknown
4:50 AM 39.2 °F - 35.6 °F 87% 30.09 in 3.7 mi Variable 2.3 mph - N/A   Unknown
5:20 AM 42.8 °F - 41.0 °F 93% 30.09 in 3.7 mi Variable 2.3 mph - N/A   Unknown
5:50 AM 46.4 °F 45.2 °F 37.4 °F 71% 30.09 in 3.7 mi ENE 3.5 mph - N/A   Unknown
6:20 AM 46.4 °F - 37.4 °F 71% 30.09 in 3.7 mi Variable 2.3 mph - N/A   Unknown
6:50 AM 46.4 °F - 35.6 °F 66% 30.09 in 3.7 mi Variable 2.3 mph - N/A   Mostly Cloudy
7:20 AM 46.4 °F - 37.4 °F 71% 30.09 in 3.7 mi SSE 2.3 mph - N/A   Mostly Cloudy
7:50 AM 46.4 °F 45.2 °F 37.4 °F 71% 30.09 in 3.7 mi ENE 3.5 mph - N/A   Mostly Cloudy
8:00 AM 46 °F - 38 °F 65% 30.10 in 4 mi ENE 3.5 mph - -   Mist
8:20 AM 50.0 °F - 37.4 °F 62% 30.09 in 5.0 mi ENE 4.6 mph - N/A   Mostly Cloudy
8:50 AM 50.0 °F - 37.4 °F 62% 30.09 in 6.2 mi East 5.8 mph - N/A   Mostly Cloudy
9:20 AM 51.8 °F - 37.4 °F 58% 30.09 in 6.2 mi SE 5.8 mph - N/A   Mostly Cloudy
9:50 AM 51.8 °F - 35.6 °F 54% 30.09 in 6.2 mi East 5.8 mph - N/A   Mostly Cloudy
10:20 AM 51.8 °F - 35.6 °F 54% 30.09 in 6.2 mi East 5.8 mph - N/A   Mostly Cloudy
10:50 AM 51.8 °F - 35.6 °F 54% 30.09 in 6.2 mi East 6.9 mph - N/A   Mostly Cloudy
11:20 AM 53.6 °F - 35.6 °F 51% 30.09 in 6.2 mi East 5.8 mph - N/A   Mostly Cloudy
11:50 AM 53.6 °F - 33.8 °F 47% 30.09 in 6.2 mi East 4.6 mph - N/A   Mostly Cloudy
12:20 PM 53.6 °F - 33.8 °F 47% 30.09 in 6.2 mi ESE 4.6 mph - N/A   Mostly Cloudy
12:50 PM 55.4 °F - 35.6 °F 47% 30.09 in 6.2 mi ESE 4.6 mph - N/A   Mostly Cloudy
1:20 PM 55.4 °F - 35.6 °F 47% 30.06 in 6.2 mi ESE 5.8 mph - N/A   Mostly Cloudy
1:50 PM 55.4 °F - 33.8 °F 44% 30.06 in 6.2 mi ESE 5.8 mph - N/A   Mostly Cloudy
2:00 PM 55 °F - 35 °F 34% 30.08 in 6 mi ESE 5.8 mph - -   Partly Cloudy
2:20 PM 53.6 °F - 35.6 °F 51% 30.06 in 6.2 mi ESE 4.6 mph - N/A   Mostly Cloudy
2:50 PM 55.4 °F - 35.6 °F 47% 30.06 in 6.2 mi East 4.6 mph - N/A   Mostly Cloudy
3:20 PM 55.4 °F - 33.8 °F 44% 30.06 in 6.2 mi ESE 4.6 mph - N/A   Mostly Cloudy
3:50 PM 55.4 °F - 33.8 °F 44% 30.06 in 6.2 mi Variable 2.3 mph - N/A   Mostly Cloudy
4:20 PM 55.4 °F - 32.0 °F 41% 30.06 in 6.2 mi ESE 4.6 mph - N/A   Mostly Cloudy
4:50 PM 53.6 °F - 33.8 °F 47% 30.06 in 6.2 mi SE 3.5 mph - N/A   Mostly Cloudy
5:20 PM 51.8 °F - 33.8 °F 50% 30.06 in 6.2 mi Variable 1.2 mph - N/A   Mostly Cloudy
5:50 PM 51.8 °F - 33.8 °F 50% 30.06 in 6.2 mi Variable 1.2 mph - N/A   Mostly Cloudy
6:20 PM 55.4 °F - 33.8 °F 44% 30.04 in 6.2 mi NE 5.8 mph - N/A   Mostly Cloudy
6:50 PM 53.6 °F - 35.6 °F 51% 30.06 in 6.2 mi North 6.9 mph - N/A   Mostly Cloudy
7:20 PM 55.4 °F - 37.4 °F 51% 30.06 in 6.2 mi NNE 3.5 mph - N/A   Scattered Clouds
7:50 PM 55.4 °F - 39.2 °F 54% 30.06 in 6.2 mi NE 3.5 mph - N/A   Scattered Clouds
8:00 PM 55 °F - 39 °F 43% 30.07 in 6 mi NE 3.5 mph - -   Partly Cloudy
8:20 PM 55.4 °F - 39.2 °F 54% 30.06 in - NE 3.5 mph - N/A   Clear
8:50 PM 53.6 °F - 37.4 °F 54% 30.04 in - ENE 5.8 mph - N/A   Clear
9:20 PM 53.6 °F - 37.4 °F 54% 30.04 in - East 5.8 mph - N/A   Clear
9:50 PM 53.6 °F - 37.4 °F 54% 30.04 in - NE 4.6 mph - N/A   Clear
10:20 PM 53.6 °F - 37.4 °F 54% 30.04 in - ENE 3.5 mph - N/A   Clear
10:50 PM 53.6 °F - 37.4 °F 54% 30.04 in 3.7 mi ENE 4.6 mph - N/A   Unknown
11:20 PM 53.6 °F - 37.4 °F 54% 30.04 in 3.7 mi NE 4.6 mph - N/A   Unknown
11:50 PM 53.6 °F - 37.4 °F 54% 30.04 in 3.7 mi NE 5.8 mph - N/A   Unknown